Location: Aranbee
(34.0885°N, 118.2342°W)
Time: 10:41:17
(UTC+00:00)

Courier 1B Rocket - Pass Details

Date: 05 December 2020
Orbit: 920 x 1202 km, 28.2° (Epoch: 19 January)

Event Time Altitude Azimuth Distance (km) Brightness Sun altitude
Exits shadow 10:37:33 18° 104° (ESE) 2,544 7.5 -50.3°
Drops below altitude 10° 10:39:31 10° 97° (E) 3,119 8.1 -49.9°
Sets 10:42:36 0° 90° (E) 4,094 8.9 -49.3°
